Terug naar catalogus

STARLINK-5414

ActiefCommunicatieVLEO
NORAD 54809·PAYLOAD·🇺🇸 United States

Gelanceerd Dec 17, 2022 vanaf Cape Canaveral Space Force Station

Loading…

Volgende Passages (komende 24 uur)

TLE

VersSource: CelesTrak SupGP

Epoch: Sep 15, 2026, 02:35 UTC

1 54809C 22175BD  26258.10812500 -.00029526  00000+0 -87233-3 0  2582
2 54809  53.1580 242.6139 0001325  89.0373  26.6482 15.34405882    17

Volg STARLINK-5414 in realtime met AllMySat

Download on the App Store